Colorado Springs, CO

8:34 AM MDT on October 17, 2017 (GMT -0600)
City Of Colorado Springs Municipal

Weather History for KCOS - July, 2013

Change the Weather History Date:

Tuesday, July 23, 2013

  Actual Average Record
Temperature  
Mean Temperature 76 °F 71 °F  
Max Temperature 92 °F 85 °F 97 °F (2005)
Min Temperature 59 °F 58 °F 49 °F (1950)
Degree Days  
Heating Degree Days 0 0  
Month to date heating degree days 5 3  
Since 1 June heating degree days 30 82  
Since 1 July heating degree days 5 3  
Cooling Degree Days 11 6  
Month to date cooling degree days 172 141  
Year to date cooling degree days 376 234  
Since 1 June cooling degree days 354 224  
Growing Degree Days 26 (Base 50)    
Moisture  
Dew Point 40 °F    
Average Humidity 32    
Maximum Humidity 55    
Minimum Humidity 8    
Precipitation  
Precipitation 0.00 in 0.12 in 0.95 in (1975)
Month to date precipitation 4.27 1.97  
Year to date precipitation 7.60 9.58  
Snow  
Snow 0.00 in 0.00 in 0.00 in (2002)
Month to date snowfall 0.0 0.0  
Since 1 June snowfall 0.0 0.0  
Since 1 July snowfall 0.0 0.0  
Snow Depth 0.00 in    
Sea Level Pressure  
Sea Level Pressure 29.88 in    
Wind  
Wind Speed 10 mph (NE)    
Max Wind Speed 22 mph    
Max Gust Speed 26 mph    
Visibility 10 miles    
Events      
T = Trace of Precipitation, MM = Missing Value Source: NWS Daily Summary

Daily Weather History Graph

Daily Weather History Graph

Search for Another Location

Airport or City:

Trip Planner

Search our weather history database for the weather conditions in past years. The results will help you decide how hot, cold, wet, or windy it might be!

Date:

Astronomy

Jul. 23, 2013 Rise Set
Actual Time 5:52 AM MDT 8:17 PM MDT
Civil Twilight 5:22 AM MDT 8:47 PM MDT
Nautical Twilight 4:44 AM MDT 9:25 PM MDT
Astronomical Twilight 4:02 AM MDT 10:06 PM MDT
Moon 8:49 PM MDT (7/23) 7:02 AM MDT (7/23)
Length of Visible Light 15h 25m
Length of Day
14h 25m
Full, 99% of the Moon is Illuminated
Jul 23
Full
Jul 29
Last Quarter
Aug 6
New
Aug 14
First Quarter
Aug 20
Full

Hourly Weather History & Observations

Time (MDT) Temp. Dew Point Humidity Pressure Visibility Wind Dir Wind Speed Gust Speed Precip Events Conditions
12:54 AM 64.9 °F 45.0 °F 48% 29.84 in 10.0 mi NNW 4.6 mph - N/A   Clear
1:54 AM 63.0 °F 45.0 °F 52% 29.85 in 10.0 mi Calm Calm - N/A   Clear
2:54 AM 63.0 °F 45.0 °F 52% 29.83 in 10.0 mi North 8.1 mph - N/A   Clear
3:54 AM 64.0 °F 43.0 °F 46% 29.83 in 10.0 mi Calm Calm - N/A   Partly Cloudy
4:54 AM 61.0 °F 43.0 °F 52% 29.84 in 10.0 mi North 8.1 mph - N/A   Partly Cloudy
5:54 AM 60.1 °F 44.1 °F 55% 29.86 in 10.0 mi North 8.1 mph - N/A   Scattered Clouds
6:54 AM 66.0 °F 43.0 °F 43% 29.86 in 10.0 mi North 9.2 mph - N/A   Scattered Clouds
7:54 AM 77.0 °F 44.1 °F 31% 29.84 in 10.0 mi North 11.5 mph - N/A   Scattered Clouds
8:54 AM 82.9 °F 44.1 °F 25% 29.85 in 10.0 mi NNW 5.8 mph - N/A   Scattered Clouds
9:54 AM 87.1 °F 28.0 °F 12% 29.84 in 10.0 mi North 12.7 mph - N/A   Scattered Clouds
10:54 AM 90.0 °F 21.0 °F 8% 29.87 in 10.0 mi NE 10.4 mph - N/A   Scattered Clouds
11:54 AM 91.0 °F 21.9 °F 8% 29.86 in 10.0 mi ENE 10.4 mph 20.7 mph N/A   Scattered Clouds
12:54 PM 91.0 °F 25.0 °F 9% 29.85 in 10.0 mi ENE 10.4 mph 21.9 mph N/A   Scattered Clouds
1:46 PM 91.4 °F 30.2 °F 11% 30.16 in 10.0 mi NNE 19.6 mph 24.2 mph N/A   Scattered Clouds
1:54 PM 91.9 °F 30.0 °F 11% 29.85 in 10.0 mi ENE 13.8 mph 24.2 mph N/A   Scattered Clouds
2:54 PM 91.0 °F 32.0 °F 12% 29.85 in 10.0 mi ENE 12.7 mph 20.7 mph N/A   Scattered Clouds
3:54 PM 90.0 °F 30.0 °F 12% 29.84 in 10.0 mi NE 15.0 mph 23.0 mph N/A   Scattered Clouds
4:54 PM 90.0 °F 35.1 °F 14% 29.85 in 10.0 mi ENE 15.0 mph - N/A   Scattered Clouds
5:54 PM 89.1 °F 35.1 °F 15% 29.86 in 10.0 mi East 15.0 mph - N/A   Mostly Cloudy
6:54 PM 84.0 °F 46.0 °F 26% 29.88 in 10.0 mi ESE 18.4 mph 26.5 mph N/A   Mostly Cloudy
7:54 PM 80.1 °F 50.0 °F 35% 29.88 in 10.0 mi ESE 13.8 mph - N/A   Mostly Cloudy
8:54 PM 75.0 °F 51.1 °F 43% 29.91 in 10.0 mi East 9.2 mph - N/A   Scattered Clouds
9:54 PM 73.9 °F 51.1 °F 45% 29.94 in 10.0 mi SE 3.5 mph - N/A   Mostly Cloudy
10:54 PM 72.0 °F 53.1 °F 51% 29.95 in 10.0 mi East 6.9 mph - N/A   Mostly Cloudy
11:54 PM 71.1 °F 53.1 °F 53% 29.96 in 10.0 mi East 5.8 mph - N/A   Mostly Cloudy